Location: Miss�
(46.9484°N, 0.1922°W)
Time: 00:00:13
(UTC+00:00)

USA 234 - Pass Details

Date: 02 March 2021
Orbit: 1102 x 1105 km, 123.0° (Epoch: 18 April)

Event Time Altitude Azimuth Distance (km) Brightness Sun altitude
Exits shadow 18:37:03 - 61° (ENE) 3,288 5.2 -9.2°
Reaches altitude 10° 18:37:59 10° 64° (ENE) 2,965 5.0 -9.3°
Maximum altitude 18:43:58 37° 130° (SE) 1,650 3.8 -10.4°
Drops below altitude 10° 18:49:54 10° 196° (SSW) 2,953 5.7 -11.4°
Sets 18:52:36 0° 205° (SSW) 3,908 6.5 -11.8°
